Regional Weather Roundup
Issued by NWS State College, PA

Home | Current Version | Previous Version | Graphics & Text | Print | Product List | Glossary Off
Versions: 1 2 3 4 5 6 7 8 9 10 11 12 13 14 15 16 17 18 19 20 21 22 23 24 25 26 27 28 29 30 31 32 33 34 35 36 37 38 39 40 41 42 43 44 45 46 47 48 49 50

000
ASUS41 KCTP 300410
RWRCTP

REGIONAL WEATHER ROUNDUP
NATIONAL WEATHER SERVICE STATE COLLEGE PA
1200 AM EDT THU JUL 30 2015

Note: "fair" indicates few or no clouds below 12,000 feet with no
significant weather and/or obstructions to visibility.

* = STATION THAT DOES NOT REPORT PRECIPITATION /E.G. RAIN...SNOW...ETC/
    THUNDER OR FOG.

PAZ002>004-007>009-013>016-020>023-029>032-300500-
WESTERN PENNSYLVANIA

CITY           SKY/WX    TMP DP  RH WIND       PRES   REMARKS
ERIE           MOCLDY    79  69  71 SW6       29.89S
MEADVILLE      LGT RAIN  77  67  71 W7        29.94S
FRANKLIN*      CLOUDY    75  66  73 SW6       29.96S
NEW CASTLE     FAIR      78  71  79 CALM      29.94S
BEAVER COUNTY  NOT AVBL
BUTLER*        MOCLDY    73  70  88 CALM      29.96S
PITTSBURGH INT MOCLDY    79  69  71 CALM      29.94F
PITTSBURGH     PTCLDY    80  66  62 SW7       29.94F
INDIANA*       CLOUDY    73  73 100 CALM      29.99S
LATROBE        NOT AVBL
WASHINGTON CO* NOT AVBL
$$

PAZ004>006-010>012-017>019-024>028-033>037-041-042-045-046-049>053-300500-
CENTRAL PENNSYLVANIA

CITY           SKY/WX    TMP DP  RH WIND       PRES   REMARKS
BRADFORD       MOCLDY    73  67  81 CALM      29.98S
DUBOIS         MOCLDY    77  69  76 S5        29.96F
CLEARFIELD     MOCLDY    73  68  84 CALM      29.97S
JOHNSTOWN      PTCLDY    74  67  78 SW7       30.01F
ALTOONA        PTCLDY    72  69  90 CALM      29.98F
STATE COLLEGE  MOCLDY    75  71  85 W3        29.96S
WILLIAMSPORT   CLEAR     74  69  85 CALM      29.91S
SELINSGROVE    CLEAR     77  73  87 S3        29.93S
FT INDIANTOWN  CLOUDY    75  73  95 CALM      29.95S
CAPITAL CITY   PTCLDY    80  72  76 CALM      29.94S
HARRISBURG     PTCLDY    80  73  79 VRB5      29.93S
YORK           PTCLDY    77  73  87 S3        29.95F
$$

PAZ038>040-043-044-047-048-054-055-060>062-067>071-300500-
EASTERN PENNSYLVANIA

CITY           SKY/WX    TMP DP  RH WIND       PRES   REMARKS
SCRANTON       CLEAR     79  69  71 VRB3      29.95F
MOUNT POCONO     N/A    N/A N/A N/A MISG      30.02S
ALLENTOWN      CLEAR     77  71  82 W3        29.95S
QUAKERTOWN*    CLEAR     77  72  83 CALM      29.97S
READING        CLEAR     79  72  79 S3        29.94F
LANCASTER      CLEAR     78  74  87 S5        29.95S
COATESVILLE    CLEAR     75  75 100 CALM      29.98S
POTTSTOWN      CLEAR     77  74  90 CALM      29.97S
BLUE BELL      CLEAR     79  73  83 CALM      29.95S
DOYLESTOWN     CLEAR     76  73  91 S5        29.95S
WILLOW GROVE   NOT AVBL
NORTH PHILA    CLEAR     81  70  69 VRB3      29.96S
PHILADELPHIA   PTCLDY    82  73  74 SW9       29.95S
$$


USA.gov is the U.S. government's official web portal to all federal, state and local government web resources and services.